Retour au catalogue

WGS F3

USA 211

ActifMilitaireGEO
NORAD 36108·PAYLOAD·🇺🇸 United States

Lancé Dec 6, 2009 depuis Cape Canaveral Space Force Station

Loading…

TLE

FraisSource: Space-Track

Époque: Sep 14, 2026, 13:13 UTC

1 36108U 09068A   26257.55096412  .00000013  00000-0  00000-0 0  9999
2 36108   0.3115  85.0985 0000438  30.8812 313.5979  1.00272709 47480

Suivez WGS F3 en temps réel avec AllMySat

Download on the App Store